Location: Fernhill
(41.0167°S, 175.6333°E)
Time: 16:11:32
(UTC+00:00)

Cosmos 1833 Rocket - Pass Details

Date: 20 February 2026
Orbit: 832 x 837 km, 71.0° (Epoch: 8 March)

Event Time Altitude Azimuth Distance (km) Brightness Sun altitude
Exits shadow 12:22:43 27° 159° (SSE) 1,573 4.5 -38.1°
Drops below altitude 10° 12:25:12 10° 157° (SSE) 2,477 5.7 -38.2°
Sets 12:27:40 0° 156° (SSE) 3,419 6.6 -38.2°
